Regional Weather Roundup
Issued by NWS

Home | Current Version | Previous Version | Graphics & Text | Print | Product List | Glossary On
Versions: 1 2 3 4 5 6 7 8 9 10 11 12 13 14 15 16 17 18 19 20 21 22 23 24 25 26 27 28 29 30 31 32 33 34 35 36 37 38 39 40 41 42 43 44 45 46 47 48 49 50
000
ASUS43 KOAX 261010
RWRNE

WEATHER ROUNDUP FOR NEBRASKA
NATIONAL WEATHER SERVICE OMAHA NE
500 AM CDT THU MAY 26 2016

NOTES: SATELLITE DATA IS BEING USED TO AUGMENT CLOUD COVER ABOVE
       12000 FEET.
       "FAIR" INDICATES FEW OR NO CLOUDS BELOW 12,000 FEET WITH NO
       SIGNIFICANT WEATHER AND/OR OBSTRUCTIONS TO VISIBILITY.

  * THESE STATIONS DO NOT REPORT WEATHER SUCH AS RAIN...SNOW OR FOG.

NEZ001>004-019>022-054>056-261100-
NEBRASKA PANHANDLE

CITY           SKY/WX    TMP DP  RH WIND       PRES   REMARKS
SCOTTSBLUFF    CLEAR     45  40  82 N9        29.95R
ALLIANCE       CLOUDY    41  39  93 NW6       29.92F
CHADRON        CLEAR     41  39  93 SW6       29.91R
KIMBALL        CLOUDY    44  40  88 W8        29.98R
SIDNEY         PTCLDY    47  43  86 W9        29.95R
$$

NEZ057>060-069>072-079>082-261100-
SOUTHWEST NEBRASKA

CITY           SKY/WX    TMP DP  RH WIND       PRES   REMARKS
NORTH PLATTE   MOCLDY    51  50  96 CALM      29.91R
IMPERIAL       MOCLDY    51  48  89 MISG      29.91F
LEXINGTON      CLEAR     51  49  92 CALM      29.89S
MCCOOK         CLEAR     49  47  93 SW3       29.89S
OGALLALA       CLEAR     51  46  84 CALM      29.90S
$$

NEZ005>010-023>029-035>040-094-261100-
NORTH CENTRAL NEBRASKA

CITY           SKY/WX    TMP DP  RH WIND       PRES   REMARKS
VALENTINE      PTCLDY    48  45  89 W3        29.89S
AINSWORTH      CLOUDY    52  47  84 NW3       29.88F
BROKEN BOW     CLOUDY    54  51  90 CALM      29.88R
O`NEILL        CLEAR     54  51  89 N8        29.85F
ORD            PTCLDY    53  51  93 S7        29.85R
THEDFORD       CLOUDY    55  49  80 W8        29.93R
$$

NEZ041-046>049-061>064-073>077-083>087-261100-
SOUTH CENTRAL NEBRASKA

CITY           SKY/WX    TMP DP  RH WIND       PRES   REMARKS
GRAND ISLAND   CLEAR     56  53  90 S5        29.88R
AURORA         CLEAR     56  54  91 CALM      29.86S
HASTINGS       CLEAR     56  52  86 CALM      29.87S
HEBRON         CLEAR     55  53  95 CALM      29.86S
HOLDREGE       PTCLDY    53  51  90 CALM      29.89S
KEARNEY *      CLEAR     54  50  87 CALM      29.89R
YORK           CLEAR     55  54  94 SE3       29.86S
$$

NEZ011>018-030>034-042>045-261100-
NORTHEAST NEBRASKA

CITY           SKY/WX    TMP DP  RH WIND       PRES   REMARKS
NORFOLK        CLEAR     53  51  93 CALM      29.84F
ALBION         CLEAR     53  50  89 S3        29.84R
BLAIR          CLEAR     59  56  91 E7        29.85S
FREMONT        CLEAR     59  55  87 E6        29.86S
TEKAMAH        CLEAR     57  54  89 S5        29.85F
WAYNE          CLEAR     53  51  93 CALM      29.85F
$$

NEZ050>053-065>068-078-088>093-261100-
SOUTHEAST NEBRASKA

CITY           SKY/WX    TMP DP  RH WIND       PRES   REMARKS
LINCOLN        CLEAR     59  55  87 CALM      29.88R
OMAHA EPPLEY   CLEAR     62  56  80 CALM      29.84F
BEATRICE       CLEAR     59  55  87 NE7       29.86R
FALLS CITY     CLOUDY    63  61  93 N5        29.85R
NEBRASKA CITY  CLEAR     62  62 100 E7        29.87S
PLATTSMOUTH    CLEAR     62  60  93 E7        29.87R
$$

NEZ044-045-051>053-067-261100-
OMAHA AREA

CITY           SKY/WX    TMP DP  RH WIND       PRES   REMARKS
OMAHA EPPLEY   CLEAR     62  56  80 CALM      29.84F
BLAIR          CLEAR     59  56  91 E7        29.85S
FREMONT        CLEAR     59  55  87 E6        29.86S
MILLARD        CLEAR     61  56  83 CALM      29.85S
OFFUTT AFB     CLEAR     61  58  89 SE6       29.85F
PLATTSMOUTH    CLEAR     62  60  93 E7        29.87R
WAHOO          FAIR      57  54  90 S6        29.87R
$$



USA.gov is the U.S. government's official web portal to all federal, state and local government web resources and services.